NP321 KDCA-KCLT

Flight info

Callsign NP321
Flight time N/A
Altitude 20000
Route SCRAM6 GLANC LYH MAJIC4
Aircraft AT76/M-SDFGIRY/S

Departure

Time 2026-05-08 01:51
Airport Ronald Reagan Washington National Airport (KDCA)

Arrival

Time N/A
Airport Charlotte Douglas International Airport (KCLT)
Time Latitude Longitude Altitude Speed Heading
2026-05-08 01:12 38.84564 -77.04448 19 ft 0 kts 142°
2026-05-08 01:38 38.84554 -77.04433 21 ft 3 kts 120°
2026-05-08 01:39 38.84546 -77.04414 22 ft 0 kts 114°
2026-05-08 01:39 38.84546 -77.04413 22 ft 1 kts 114°
2026-05-08 01:39 38.84550 -77.04402 20 ft 5 kts 65°
2026-05-08 01:39 38.84554 -77.04363 20 ft 4 kts 100°
2026-05-08 01:40 38.84551 -77.04331 20 ft 4 kts 100°
2026-05-08 01:40 38.84546 -77.04285 20 ft 6 kts 90°
2026-05-08 01:40 38.84538 -77.04233 21 ft 1 kts 112°
2026-05-08 01:40 38.84536 -77.04224 21 ft 2 kts 103°
2026-05-08 01:41 38.84535 -77.04170 22 ft 11 kts 84°
2026-05-08 01:41 38.84554 -77.04080 22 ft 8 kts 53°
2026-05-08 01:41 38.84617 -77.04037 19 ft 2 kts 13°
2026-05-08 01:41 38.84641 -77.04030 18 ft 11 kts 16°
2026-05-08 01:42 38.84738 -77.03974 17 ft 12 kts 27°
2026-05-08 01:42 38.84843 -77.03941 16 ft 16 kts 354°
2026-05-08 01:42 38.84887 -77.03905 15 ft 8 kts 49°
2026-05-08 01:42 38.84925 -77.03895 14 ft 0 kts 347°
2026-05-08 01:43 38.84940 -77.03897 14 ft 4 kts 353°
2026-05-08 01:43 38.85035 -77.03905 15 ft 18 kts 356°
2026-05-08 01:43 38.85165 -77.03921 16 ft 19 kts 354°
2026-05-08 01:43 38.85299 -77.03931 15 ft 20 kts 356°
2026-05-08 01:44 38.85436 -77.03945 19 ft 18 kts 354°
2026-05-08 01:44 38.85535 -77.03954 20 ft 12 kts 355°
2026-05-08 01:44 38.85604 -77.03984 21 ft 11 kts 323°
2026-05-08 01:44 38.85672 -77.04053 23 ft 15 kts 324°
2026-05-08 01:45 38.85761 -77.04139 23 ft 17 kts 323°
2026-05-08 01:45 38.85856 -77.04230 23 ft 17 kts 324°
2026-05-08 01:45 38.85951 -77.04324 22 ft 17 kts 322°
2026-05-08 01:45 38.85986 -77.04358 21 ft 3 kts 318°
2026-05-08 01:46 38.85997 -77.04372 21 ft 0 kts 320°
2026-05-08 01:47 38.86063 -77.04399 19 ft 12 kts
2026-05-08 01:48 38.86085 -77.04296 20 ft 0 kts 147°
2026-05-08 01:51 38.86077 -77.04290 19 ft 15 kts 146°
2026-05-08 01:51 38.85790 -77.04014 22 ft 85 kts 140°
2026-05-08 01:51 38.85216 -77.03398 125 ft 122 kts 143°
2026-05-08 01:51 38.84593 -77.02661 627 ft 122 kts 141°
2026-05-08 01:52 38.83875 -77.02116 1161 ft 120 kts 168°
2026-05-08 01:52 38.83048 -77.02350 1573 ft 128 kts 211°
2026-05-08 01:52 38.82205 -77.02889 1909 ft 150 kts 201°
2026-05-08 01:52 38.81095 -77.03157 2022 ft 172 kts 189°
2026-05-08 01:53 38.79868 -77.03272 2245 ft 178 kts 186°
2026-05-08 01:53 38.78642 -77.03329 2565 ft 179 kts 184°
2026-05-08 01:53 38.77387 -77.03371 2972 ft 181 kts 184°
2026-05-08 01:53 38.76139 -77.03534 3288 ft 180 kts 205°
2026-05-08 01:54 38.75297 -77.04629 3653 ft 173 kts 250°
2026-05-08 01:54 38.74925 -77.06094 4026 ft 173 kts 259°
2026-05-08 01:54 38.74703 -77.07602 4428 ft 172 kts 266°
2026-05-08 01:54 38.74588 -77.09104 4837 ft 171 kts 269°
2026-05-08 01:55 38.74516 -77.10632 5249 ft 171 kts 270°
2026-05-08 01:55 38.74446 -77.12151 5648 ft 170 kts 271°
2026-05-08 01:55 38.74305 -77.13656 6024 ft 173 kts 256°
2026-05-08 01:55 38.73782 -77.15071 6355 ft 177 kts 249°
2026-05-08 01:56 38.73222 -77.16479 6724 ft 177 kts 249°
2026-05-08 01:56 38.72673 -77.17881 7116 ft 175 kts 249°
2026-05-08 01:56 38.72147 -77.19259 7492 ft 173 kts 250°
2026-05-08 01:56 38.71626 -77.20644 7877 ft 172 kts 250°
2026-05-08 01:57 38.71112 -77.22022 8250 ft 171 kts 252°
2026-05-08 01:57 38.70546 -77.23367 8574 ft 173 kts 243°
2026-05-08 01:57 38.69822 -77.24585 9067 ft 167 kts 240°
2026-05-08 01:57 38.69127 -77.25696 9628 ft 157 kts 241°
2026-05-08 01:58 38.68471 -77.26770 10115 ft 149 kts 242°
2026-05-08 01:58 38.67862 -77.27809 10522 ft 146 kts 243°
2026-05-08 01:58 38.67243 -77.28908 10699 ft 157 kts 243°
2026-05-08 01:58 38.66592 -77.30090 10871 ft 167 kts 243°
2026-05-08 01:59 38.65907 -77.31332 11052 ft 174 kts 242°
2026-05-08 01:59 38.65210 -77.32570 11376 ft 171 kts 242°
2026-05-08 01:59 38.64510 -77.33797 11720 ft 170 kts 242°
2026-05-08 01:59 38.63816 -77.35013 12051 ft 169 kts 242°
2026-05-08 02:00 38.63124 -77.36231 12350 ft 168 kts 242°
2026-05-08 02:00 38.62441 -77.37439 12651 ft 167 kts 242°
2026-05-08 02:00 38.61765 -77.38637 12942 ft 167 kts 242°
2026-05-08 02:00 38.61084 -77.39845 13231 ft 167 kts 241°
2026-05-08 02:01 38.60410 -77.41039 13513 ft 167 kts 241°
2026-05-08 02:01 38.59729 -77.42244 13794 ft 166 kts 241°
2026-05-08 02:01 38.59052 -77.43443 14051 ft 166 kts 241°
2026-05-08 02:01 38.58371 -77.44629 14365 ft 166 kts 240°
2026-05-08 02:02 38.57680 -77.45816 14699 ft 166 kts 240°
2026-05-08 02:02 38.56990 -77.46999 15017 ft 165 kts 241°
2026-05-08 02:02 38.56307 -77.48178 15311 ft 165 kts 238°
2026-05-08 02:02 38.55631 -77.49359 15541 ft 164 kts 239°
2026-05-08 02:03 38.54981 -77.50556 15736 ft 163 kts 240°
2026-05-08 02:03 38.54342 -77.51765 15936 ft 164 kts 240°
2026-05-08 02:03 38.53705 -77.52956 16140 ft 164 kts 240°
2026-05-08 02:03 38.53047 -77.54149 16367 ft 164 kts 239°
2026-05-08 02:04 38.52382 -77.55338 16598 ft 164 kts 240°
2026-05-08 02:04 38.51711 -77.56525 16805 ft 165 kts 240°
2026-05-08 02:04 38.51047 -77.57701 17010 ft 165 kts 240°
2026-05-08 02:04 38.50373 -77.58887 17215 ft 164 kts 240°
2026-05-08 02:05 38.49927 -77.59675 17349 ft 165 kts 240°
2026-05-08 02:05 38.49032 -77.61251 17606 ft 165 kts 240°
2026-05-08 02:05 38.48576 -77.62054 17735 ft 165 kts 240°
2026-05-08 02:05 38.47910 -77.63225 17919 ft 165 kts 240°
2026-05-08 02:06 38.47235 -77.64408 18094 ft 165 kts 240°
2026-05-08 02:06 38.46559 -77.65593 18260 ft 165 kts 241°
2026-05-08 02:06 38.45879 -77.66774 18440 ft 165 kts 241°
2026-05-08 02:06 38.45191 -77.67955 18612 ft 166 kts 240°
2026-05-08 02:07 38.44456 -77.69103 18777 ft 167 kts 238°
2026-05-08 02:07 38.43696 -77.70211 18921 ft 168 kts 237°
2026-05-08 02:07 38.42925 -77.71331 19108 ft 168 kts 238°
2026-05-08 02:07 38.42152 -77.72458 19251 ft 168 kts 238°
2026-05-08 02:08 38.41390 -77.73569 19397 ft 168 kts 238°
2026-05-08 02:08 38.40619 -77.74692 19535 ft 168 kts 238°
2026-05-08 02:08 38.39852 -77.75814 19677 ft 168 kts 238°
2026-05-08 02:08 38.39085 -77.76935 19818 ft 168 kts 238°
2026-05-08 02:09 38.38317 -77.78053 19938 ft 168 kts 238°
2026-05-08 02:09 38.37540 -77.79186 19988 ft 171 kts 238°
2026-05-08 02:09 38.36750 -77.80345 20013 ft 174 kts 238°
2026-05-08 02:09 38.35966 -77.81509 20025 ft 177 kts 239°
2026-05-08 02:10 38.35168 -77.82713 20033 ft 179 kts 239°
2026-05-08 02:10 38.34364 -77.83946 19993 ft 183 kts 239°
2026-05-08 02:10 38.33546 -77.85205 19971 ft 185 kts 239°
2026-05-08 02:10 38.32722 -77.86475 19956 ft 187 kts 239°
2026-05-08 02:11 38.31884 -77.87762 19875 ft 192 kts 239°
2026-05-08 02:11 38.31019 -77.89106 19641 ft 201 kts 239°
2026-05-08 02:11 38.30129 -77.90528 19290 ft 214 kts 239°
2026-05-08 02:11 38.29175 -77.92048 18936 ft 224 kts 238°
2026-05-08 02:12 38.28165 -77.93614 18572 ft 232 kts 237°
2026-05-08 02:12 38.27103 -77.95252 17970 ft 247 kts 237°
2026-05-08 02:12 38.25980 -77.96982 17301 ft 258 kts 236°
2026-05-08 02:12 38.24818 -77.98768 16751 ft 264 kts 236°
2026-05-08 02:13 38.23641 -78.00573 16289 ft 267 kts 235°
2026-05-08 02:13 38.22459 -78.02380 15989 ft 264 kts 235°
2026-05-08 02:13 38.21303 -78.04148 15687 ft 262 kts 235°